Location: De Har
(53.3413°N, 6.6858°E)
Time: 21:00:04
(UTC+00:00)

USA 234 - Pass Details

Date: 22 April 2026
Orbit: 1102 x 1106 km, 123.0° (Epoch: 4 January)

Event Time Altitude Azimuth Distance (km) Brightness Sun altitude
Rises 00:18:24 0° 93° (E) 3,919 6.3 -23.8°
Reaches altitude 10° 00:20:53 10° 91° (E) 2,963 5.6 -23.7°
Maximum altitude 00:27:22 69° 10° (N) 1,174 3.5 -23.5°
Drops below altitude 10° 00:33:53 10° 289° (WNW) 2,968 5.5 -23.2°
Sets 00:36:22 0° 287° (WNW) 3,927 6.2 -23.1°
